www.pogodaiklimat.ru

Погода и климат >> Архив погоды >> Украина >> Запорожье


АРХИВ ПОГОДЫ в Запорожье

Время (UTC), дата Ветер
(напр.,м/с)
 
Видим.   Явления Облачность Т
(С)
Тd
(С)
f
(%)
Тe
(С)
Тes
(С)
Комфортность P
(гПа)
Po
(гПа)
Тmin
(С)
Tmax
(С)
R
(мм)
R24
(мм)
S
(см)
15 17.01 ЮВ 5 10 км слабый ливневой дождь 9/9 270 м
[Cb cap]
+1.2 +0.6 96 -5 -5 по сезону 1004.8 991.1
18 17.01 ЮВ 5 9000 м {ливн. осадки} 10/10 150 м
[St]
+1.7 +1.4 98 -4 -4 по сезону 1003.9 990.2 +1.8 1
21 17.01 ЮВ 5 300 м туман ?/? +2.7 +2.7 100 -3 -3 по сезону 1003.5 989.9
00 18.01 ЮВ 6 2600 м в посл. час туман 10/10 90 м
[St]
+3.3 +3.0 98 -3 -3 по сезону 1002.1 988.5
03 18.01 ЮВ 7 5000 м дымка 10/10 120 м
[St]
+3.7 +3.4 98 -3 -3 тепло 1000.8 987.2
06 18.01 В 6 10 км 9/0
[Ci fib]
+1.5 +0.9 96 -5 -5 по сезону 1000.4 986.7 +1.5
09 18.01 В 10 10 км 8/0
[Ci fib]
+4.9 +1.0 76 -1 -1 тепло 1000.4 986.9
12 18.01 В 8 10 км 8/0
[Ac trans Ci fib]
+4.3 +0.8 78 -2 -2 по сезону 1000.3 986.8
15 18.01 В 7 10 км 8/0
[Ac trans Ci fib]
-0.2 -1.6 90 -7 -7 по сезону 1001.6 987.8
18 18.01 В 10 10 км 8/8 360 м
[Sc]
-0.5 -1.8 91 -9 -9 по сезону 1003.4 989.6 +5.4
21 18.01 В 7 10 км 9/9 330 м
[Sc]
-1.3 -2.7 90 -9 -9 по сезону 1004.3 990.4
00 19.01 В 7 10 км 9/9 300 м
[Sc]
-2.4 -3.5 92 -10 -10 по сезону 1005.0 991.1
03 19.01 В 6 10 км 9/9 300 м
[Sc]
-2.5 -3.5 93 -10 -10 по сезону 1005.5 991.6
06 19.01 В 3 10 км 10/10 240 м
[St]
-3.7 -4.2 96 -9 -9 по сезону 1006.8 992.8 -3.9
09 19.01 В 3 10 км слабый ливневой дождь 9/9 300 м
[Cb cap]
-2.8 -3.3 96 -8 -8 по сезону 1007.0 993.0
12 19.01 Ю 1 1000 м слабый ливневой снег [диам. гололёда 1 мм] 9/9 270 м
[Cb cap]
-2.3 -2.7 97 -5 -5 по сезону 1008.8 994.8
15 19.01 ЮВ 2 9000 м дымка {ливн. осадки} 9/9 400 м
[Sc]
-2.1 -2.4 98 -6 -6 по сезону 1010.8 996.8
18 19.01 Ю 2 8000 м дымка {ливн. осадки} [диам. гололёда 1 мм] 10/10 150 м
[St]
-1.7 -1.8 99 -6 -6 по сезону 1011.6 997.6 -1.7 0.9
21 19.01 ЮЗ 2 10 км 9/9 240 м
[Sc]
-0.5 -1.1 96 -4 -4 по сезону 1013.1 999.2
00 20.01 Ю 4 1700 м туман [диам. гололёда 1 мм] 10/10 60 м
[St]
-1.0 -1.1 99 -7 -7 по сезону 1014.3 1000.3
03 20.01 Ю 3 100 м переохл. туман ?/? -1.8 -1.8 100 -7 -7 по сезону 1015.6 1001.6
06 20.01 ЮВ 1 200 м переохл. туман [диам. гололёда 1 мм] ?/? -1.7 -1.7 100 -4 -4 по сезону 1015.1 1001.1 -1.9 <0.5
09 20.01 В 2 1900 м переохл. туман 10/10 60 м
[St]
-0.2 -0.5 98 -4 -4 по сезону 1015.3 1001.3
12 20.01 В 3 300 м ливневой дождь {туман} туман ?/? +0.7 +0.7 100 -4 -4 по сезону 1012.5 998.6
15 20.01 В 3 1700 м дождь {ливн. осадки} 10/10 90 м
[Frnb Ns]
+1.3 +1.0 98 -3 -3 по сезону 1011.2 997.4
18 20.01 ЮВ 3 10 км {ливн. осадки, дождь} 8/8 900 м
[Sc]
+2.8 +2.2 96 -1 -1 тепло 1009.5 995.8 +2.8 2
21 20.01 штиль 0 6000 м слабый ливневой дождь 9/9 570 м
[Cb cap]
+2.4 +1.7 95 +1 +1 тепло 1008.4 994.7
00 21.01 штиль 0 2300 м слабый ливневой дождь 9/9 500 м
[Cb cap]
+1.9 +1.2 95 +1 +1 тепло 1006.7 993.0
03 21.01 С 2 2500 м слабый ливневой снег 9/9 210 м
[Cb cap]
+0.2 -0.2 97 -4 -4 по сезону 1004.9 991.1
06 21.01 СЗ 7 700 м ливневой снег {метель} ?/? -0.9 -1.2 98 -8 -8 по сезону 1006.8 992.9 -0.9 8 6
09 21.01 СЗ 9 10 км {ливн. осадки, метель} 9/9 300 м
[Sc]
-1.5 -1.9 97 -10 -10 по сезону 1008.8 994.9
12 21.01 З 5 10 км {ливн. осадки, метель} 6/0
[Ci fib]
-1.4 -2.4 93 -8 -7 по сезону 1012.4 998.4
15 21.01 З 1 10 км 6/0
[Ci fib]
-3.8 -4.5 95 -6 -6 по сезону 1014.8 1000.7
18 21.01 штиль 0 800 м туман 6/0
[Ci fib]
-5.5 -5.8 98 -7 -7 по сезону 1017.5 1003.2 -1.0 2
21 21.01 штиль 0 3100 м дымка {туман} 8/0
[Ac trans Ci fib]
-6.7 -7.0 98 -8 -8 по сезону 1016.8 1002.5
00 22.01 СВ 4 6000 м дымка {туман} 8/0
[Ac trans]
-3.9 -4.2 98 -10 -10 по сезону 1015.2 1001.0
03 22.01 СВ 3 10 км 8/0
[Ac trans]
-4.9 -5.4 96 -11 -11 по сезону 1015.3 1001.1
06 22.01 СВ 5 10 км 8/0
[Ac trans]
-4.2 -5.6 90 -11 -11 по сезону 1014.9 1000.7 -7.3
09 22.01 СВ 5 3700 м слабый ливневой снег 9/9 450 м
[Cb cap]
-3.7 -4.5 94 -11 -11 прохладно 1014.3 1000.2
12 22.01 С 8 2000 м ливневой снег 9/9 330 м
[Cb cap]
-3.2 -3.6 97 -12 -12 холодно 1012.2 998.1
15 22.01 С 8 800 м ливневой снег {метель} ?/? -4.3 -4.6 98 -13 -13 холодно 1011.4 997.3
18 22.01 С 8 700 м ливневой снег {метель} ?/? -4.8 -5.1 98 -14 -14 холодно 1011.4 997.2 -3.1 4
21 22.01 С 8 400 м ливневой снег {метель} ?/? -4.9 -5.2 98 -14 -14 прохладно 1010.5 996.4
00 23.01 С 9 800 м ливневой снег {метель} ?/? -4.8 -5.1 98 -14 -14 прохладно 1010.3 996.2
03 23.01 С 9 700 м ливневой снег {метель} ?/? -5.0 -5.3 98 -14 -14 прохладно 1010.3 996.2
06 23.01 С 9 10 км позёмок {ливн. осадки, метель} 9/0
[Ac trans]
-4.9 -5.2 98 -14 -14 прохладно 1011.6 997.4 -5.1 9 21
09 23.01 С 8 10 км позёмок {метель} 9/9 400 м
[Sc]
-4.0 -5.1 92 -13 -13 прохладно 1012.7 998.6
12 23.01 С 9 10 км позёмок {метель} 9/9 540 м
[Sc]
-3.6 -5.3 88 -13 -13 холодно 1014.2 1000.1
15 23.01 С 8 4900 м слабый ливневой снег {метель} 9/9 480 м
[Cb cap]
-4.2 -5.0 94 -13 -13 холодно 1017.0 1002.8
18 23.01 С 8 9000 м слабый ливневой снег {метель} 9/9 500 м
[Cb cap]
-4.6 -5.8 91 -13 -13 прохладно 1019.5 1005.2 -3.5 0.0
21 23.01 С 8 10 км позёмок {ливн. осадки, метель} 8/8 500 м
[Sc]
-8.0 -9.5 89 -17 -17 очень
холодно
1021.8 1007.3
00 24.01 СЗ 8 10 км позёмок {ливн. осадки, метель} 5/5 540 м
[Sc]
-9.8 -11.4 88 -20 -20 очень
холодно
1024.1 1009.5
03 24.01 СЗ 8 10 км позёмок {метель} ясно -11.1 -13.4 83 -21 -21 очень
холодно
1026.2 1011.5
06 24.01 СЗ 7 10 км позёмок {метель} ясно -12.0 -13.9 86 -21 -21 очень
холодно
1028.6 1013.8 -12.1 0.0 26
09 24.01 СЗ 6 10 км позёмок {метель} 3/0
[Ci fib]
-10.0 -12.5 82 -19 -17 очень
холодно
1030.7 1016.0

 

Местоположение метеостанции Запорожье (Запорожская область, Украина): широта 47.80 долгота 35.02 высота над уровнем моря 112 м.

В архиве по умолчанию представлена погода в Запорожье за последнюю неделю. Архивные данные за месяц целиком и за предыдущие месяцы, начиная с января 2011 года, Вы можете получить, выбрав интересующий диапазон дат из раскрывающегося списка и нажав кнопку "Ввод!".

Внимание! Время в таблицах - всемирное. Для получения местного времени необходимо прибавить поправку, которая в Запорожье равна 2 ч.

Смотрите также архив погоды в соседних городах и на ближайших метеорологических станциях:

Погода в Никополе (Днепропетровская область, Украина) (49 км)
Погода в Пришибе (Запорожская область, Украина) (63 км)
Погода в Лошкарёвке (Днепропетровская область, Украина) (65 км)
Погода в Синельниково (Днепропетровская область, Украина) (76 км)
Погода в Днепре (Днепропетровская область, Украина) (89 км)
Погода в Гуляйполе (Запорожская область, Украина) (93 км)
Погода в Чаплино (Днепропетровская область, Украина) (97 км)
Погода в Павлограде (Днепропетровская область, Украина) (101 км)
Погода в Комиссаровке (Днепропетровская область, Украина) (109 км)
Погода в Мелитополе (Запорожская область, Украина) (111 км)

Пояснения к столбцам:

Ветер - указаны скорость ветра в м/с - средняя за 10 мин, порывы в срок и между сроками (в фигурных скобках) и направление, откуда дует ветер: С - северный, СВ - северо-восточный, В - восточный, ЮВ - юго-восточный, Ю - южный, ЮЗ - юго-западный, З - западный, СЗ - северо-западный.
Видимость - горизонтальная дальность видимости в метрах или километрах. При видимости от 1 до 10 км при отсутствии осадков обычно наблюдается дымка, при ухудшении видимости до 1 км и менее - туман. В сухую погоду видимость может ухудшаться дымом, пылью или мглою.
Явления - указаны атмосферные явления, наблюдавшиеся в срок или в последний час перед сроком; фигурными скобками обозначены явления, наблюдавшиеся между сроками (за 1-3 часа до срока); квадратными скобками обозначены град или гололедные отложения с указанием их диаметра в мм.
Облачность - указаны через наклонную черту общая и нижняя облачность в баллах и высота нижней границы облаков в метрах; квадратными скобками обозначены формы облаков: Ci - перистые, Cs - перисто-слоистые, Cc - перисто-кучевые, Ac - высококучевые, As - высокослоистые, Sc - слоисто-кучевые, Ns - слоисто-дождевые, Cu - кучевые, Cb - кучево-дождевые. Подробнее классификацию облаков см. в Атласе облаков (PDF).
T - Температура воздуха - температура, измеренная на высоте 2 м над землей.
Td - Температура точки росы - температура, при понижении до которой содержащийся в воздухе водяной пар достигнет насыщения.
f - Относительная влажность воздуха - влажноcть воздуха, измеренная на высоте 2 м над землей.
Te - Эффективная температура - температура, которую ощущает одетый по сезону человек в тени. Характеристика душности погоды. При расчете учитывается влияние влажности воздуха и скорости ветра на теплоощущения человека.
Tes - Эффективная температура на солнце - температура, которую ощущает человек, с поправкой на солнечный нагрев. Характеристика знойности погоды. Зависит от высоты солнца над горизонтом, облачности и скорости ветра. Ночью, в пасмурную погоду, а также при ветре 12 м/с и более поправка равна нулю.
P - Атмосферное давление - приведенное к уровню моря атмосферное давление.
Po - Атмосферное давление - измеренное на уровне метеостанции атмосферное давление.
Tmin - Минимальная температура - минимум температуры воздуха на высоте 2 м над землей.
Tmax - Максимальная температура - максимум температуры воздуха на высоте 2 м над землей.
R - Количество осадков - Количество выпавших осадков за период времени, мм. При наведении курсора мыши на число - период времени, за который выпало указанное количество осадков.
R24 - Количество осадков - Количество выпавших осадков за 24 часа, мм.
S - Снежный покров - Высота снежного покрова, см. При наведении курсора мыши на число - состояние снежного покрова и степень покрытия местности в баллах.